NOAA 16 DEB, 41279

Orbit data source: Space-Track

NOAA 16 DEB, 41279 is space debris in SSO originally from a launch on Thu, 21 Sep 2000 UTC launched from the Air Force Western Test Range (AFWTR). Debris objects in space refer to the collection of defunct objects orbiting the Earth. Examples of debris include non-operational satellites, rocket bodies, and fragments generated from explosions, collisions, or faulty payload assembly.

Loading next visibility...
Identifier
41279, 2000-055GF
Orbit
SSO
Country
Flag of USUS
Related business
Manufacturer
Unknown
Mission
Spacecraft
Bus & Motor
Unknown
Mass
Unknown
Launch date (UTC)
2000-09-21 (26 years ago)
Launch vehicle
Unknown
Launch site
Air Force Western Test Range (AFWTR)
Object type
Payload
Rocket body
Debris
Shape & HBR
Unknown shape, 0.1 m
Radar Cross Section
Small (<0.1 m²)

Expand to show TLE details & history
Last TLE update: 2 days ago

TLE from 2 days ago
0 NOAA 16 DEB
1 41279U 00055GF  26170.62019513  .00001650  00000-0  83342-3 0  9991
2 41279  98.7470 230.0412 0029203 263.5394  96.2455 14.17373258539111
Epoch: 2026-06-19T14:53Z
TLE epoch observation values (Epoch: 2026-06-19T14:53:04.859Z)
Latitude
-0.00006°
Longitude
98.9244°
Altitude
839.512 km
Speed
7.432 km/s
True Right ascension
15h 20m 09s
True Declination
0° 00' 00"
Sunlit
Object was in full shadow at epoch
Visualization orbit readout
Latitude
Unknown
Longitude
Unknown
Altitude
Unknown
Speed
Unknown
Apparent Right ascension
Unknown
Apparent Declination
Unknown
Sunlit
N/A
Visualization observer readout
Local Sidereal Time
00:10:44
Azimuth
Unknown
Elevation
Unknown
Doppler factor
Unknown
Orbital elements
Apogee altitude
852.468 km
Perigee altitude
810.36 km
Semi-major axis
7,209.551 km
Eccentricity
0.00292
Inclination
98.747°
RAAN
230.0412°
Arg. of periapsis
263.5394°
True anomaly
96.57802°
Mean anomaly
96.2455°
Eccentric anomaly
96.41177°
Mean motion
3.54553 °/min
Orbital period
101.54 mins
BSTAR
0.00083342
Loading maneuver chart data...
Computing Atmospheric mass density...
Loading historical data...
Loading historical data...
Loading historical data...
Loading historical data...
Loading historical data...
Loading historical data...
Loading historical data...

Documentation

Showing up to 5 results
|